This is the latest recevied weather packets stored in our database for station/object K2YYD-2. If no packets are shown the sender has not sent any weather packets the latest 10 day(s).
| Time | Temp. | Humidity | Pressure | Rain* | Wind** | Luminosity | Snow |
|---|---|---|---|---|---|---|---|
| 1778139651 | 11.11° C | 96% | 1005.2 hPa | 4.57 mm | - | 0 W/m² | - |
| 1778139518 | 11.11° C | 96% | 1005.2 hPa | 4.83 mm | - | 0 W/m² | - |
| 1778139384 | 11.11° C | 96% | 1005.1 hPa | 5.08 mm | - | 0 W/m² | - |
| 1778139263 | 11.11° C | 96% | 1005.1 hPa | 5.59 mm | - | 0 W/m² | - |
| 1778139144 | 11.11° C | 96% | 1005.1 hPa | 6.1 mm | - | 0 W/m² | - |
| 1778139023 | 11.11° C | 96% | 1005.2 hPa | 6.1 mm | - | 0 W/m² | - |
| 1778138903 | 11.11° C | 96% | 1005.2 hPa | 6.35 mm | - | 0 W/m² | - |
| 1778138785 | 11.11° C | 96% | 1005.2 hPa | 6.6 mm | - | 0 W/m² | - |
| 1778138663 | 11.11° C | 96% | 1005.2 hPa | 6.6 mm | - | 0 W/m² | - |
| 1778138532 | 11.11° C | 96% | 1005.2 hPa | 6.86 mm | - | 0 W/m² | - |
| 1778138407 | 11.11° C | 96% | 1005.1 hPa | 6.86 mm | - | 0 W/m² | - |
| 1778138289 | 11.11° C | 96% | 1005.2 hPa | 7.11 mm | - | 0 W/m² | - |
| 1778138170 | 11.11° C | 96% | 1005.2 hPa | 7.37 mm | - | 0 W/m² | - |
| 1778138049 | 11.11° C | 96% | 1005.2 hPa | 7.37 mm | - | 0 W/m² | - |
| 1778137915 | 11.11° C | 96% | 1005.1 hPa | 7.62 mm | - | 0 W/m² | - |
| 1778137795 | 11.11° C | 96% | 1005.1 hPa | 7.87 mm | - | 0 W/m² | - |
| 1778137675 | 11.11° C | 96% | 1005.1 hPa | 7.87 mm | - | 0 W/m² | - |
| 1778137554 | 11.11° C | 96% | 1005 hPa | 8.38 mm | - | 0 W/m² | - |
| 1778137433 | 11.11° C | 96% | 1005 hPa | 8.38 mm | - | 0 W/m² | - |
| 1778137313 | 11.11° C | 96% | 1005 hPa | 8.38 mm | - | 0 W/m² | - |
| 1778137193 | 11.67° C | 95% | 1004.7 hPa | 8.13 mm | - | 0 W/m² | - |
| 1778137094 | 11.67° C | 95% | 1004.5 hPa | 7.87 mm | - | 0 W/m² | - |
| 1778136953 | 11.67° C | 95% | 1004.6 hPa | 7.37 mm | - | 0 W/m² | - |
| 1778136833 | 11.67° C | 95% | 1004.9 hPa | 6.86 mm | - | 0 W/m² | - |
| 1778136713 | 11.67° C | 95% | 1005.1 hPa | 6.6 mm | - | 0 W/m² | - |
* Rain latest hour (hover to see other rain measurements)
** Current wind speed in m/s (hover to see current wind gust speed)